EW5196 Weather Reports


time (UTC)temp
C
wind
direction
speed
KPH
gust
KPH
rain 1hr
cm
rain 24hr
cm
rain mn
cm
humidity
%
barometer
mb
20260902014550 26 174 1.6 1.6 0.00 0.00 0.00 88 1017.2
20260902014045 26 155 0.0 1.6 0.00 0.00 0.00 88 1016.9
20260902013544 26 169 1.6 1.6 0.00 0.00 0.00 88 1017.1
20260902013041 26 163 1.6 3.2 0.00 0.00 0.00 87 1016.9
20260902012536 26 186 0.0 1.6 0.00 0.00 0.00 87 1017.0
20260902012031 26 210 0.0 1.6 0.00 0.00 0.00 87 1016.7
20260902011526 26 165 1.6 1.6 0.00 0.00 0.00 87 1016.8
20260902011026 26 194 0.0 1.6 0.00 0.00 0.00 87 1016.6
20260902010525 26 175 0.0 0.0 0.00 0.00 0.00 86 1016.6
20260902010021 26 184 0.0 0.0 0.00 0.00 0.00 85 1016.7
20260902005519 26 171 0.0 0.0 0.00 0.00 0.00 85 1016.8
20260902005016 26 171 1.6 1.6 0.00 0.00 0.00 84 1016.7
20260902004515 27 180 0.0 1.6 0.00 0.00 0.00 83 1016.8
20260902004010 27 154 0.0 1.6 0.00 0.00 0.00 83 1016.5
20260902003506 27 165 0.0 1.6 0.00 0.00 0.00 83 1016.5
20260902003000 27 159 0.0 1.6 0.00 0.00 0.00 82 1016.4
20260902002456 27 168 0.0 1.6 0.00 0.00 0.00 82 1016.2
20260902001956 27 187 0.0 0.0 0.00 0.00 0.00 82 1016.3
20260902001450 27 159 0.0 1.6 0.00 0.00 0.00 81 1016.3
20260902000946 27 138 1.6 3.2 0.00 0.00 0.00 80 1016.5
20260902000444 28 159 0.0 1.6 0.00 0.00 0.00 79 1016.4
20260901235936 28 184 0.0 1.6 0.00 0.00 0.00 78 1016.5
20260901235431 28 210 0.0 1.6 0.00 0.00 0.00 78 1016.5
20260901234926 28 134 0.0 0.0 0.00 0.00 0.00 74 1016.3
20260901234420 29 165 0.0 0.0 0.00 0.00 0.00 74 1016.4
20260901233914 29 172 0.0 0.0 0.00 0.00 0.00 74 1016.2
20260901233410 30 155 0.0 1.6 0.00 0.00 0.00 71 1016.3
20260901232906 30 184 0.0 0.0 0.00 0.00 0.00 69 1016.3
20260901232401 30 216 0.0 0.0 0.00 0.00 0.00 67 1016.2
20260901231856 30 172 0.0 1.6 0.00 0.00 0.00 68 1016.2
20260901231353 31 172 0.0 0.0 0.00 0.00 0.00 66 1016.5
20260901230849 31 235 0.0 1.6 0.00 0.00 0.00 69 1016.6
20260901230348 31 235 0.0 0.0 0.00 0.00 0.00 63 1016.4
20260901225844 31 225 0.0 0.0 0.00 0.00 0.00 61 1016.5
20260901225343 32 217 0.0 1.6 0.00 0.00 0.00 62 1016.4
20260901224838 32 232 0.0 0.0 0.00 0.00 0.00 67 1016.5
20260901224335 32 194 0.0 0.0 0.00 0.00 0.00 64 1016.5
20260901223831 32 184 0.0 0.0 0.00 0.00 0.00 60 1016.8
20260901223326 32 172 0.0 0.0 0.00 0.00 0.00 61 1016.6
20260901222821 33 272 0.0 0.0 0.00 0.00 0.00 58 1016.8
20260901222318 33 235 0.0 0.0 0.00 0.00 0.00 57 1016.6
20260901221813 33 276 0.0 0.0 0.00 0.00 0.00 55 1016.9
20260901221309 34 285 0.0 1.6 0.00 0.00 0.00 52 1017.0
20260901220808 33 254 0.0 1.6 0.00 0.00 0.00 54 1016.8
20260901220302 33 260 0.0 3.2 0.00 0.00 0.00 54 1016.8
20260901215801 33 272 0.0 0.0 0.00 0.00 0.00 54 1016.6
20260901215300 33 260 0.0 1.6 0.00 0.00 0.00 54 1016.9
20260901214759 33 299 0.0 0.0 0.00 0.00 0.00 55 1017.0
20260901214258 33 265 0.0 1.6 0.00 0.00 0.00 54 1016.8
20260901213753 33 259 0.0 1.6 0.00 0.00 0.00 55 1016.9
20260901213253 34 272 0.0 1.6 0.00 0.00 0.00 54 1016.8
20260901212752 34 293 0.0 1.6 0.00 0.00 0.00 51 1016.7
20260901212248 34 265 0.0 0.0 0.00 0.00 0.00 51 1016.9
20260901211743 34 248 3.2 3.2 0.00 0.00 0.00 49 1016.7
20260901211240 34 275 0.0 3.2 0.00 0.00 0.00 51 1016.9
20260901210735 33 299 0.0 0.0 0.00 0.00 0.00 50 1017.0
20260901210230 33 358 0.0 1.6 0.00 0.00 0.00 52 1016.9
20260901205727 34 254 0.0 3.2 0.00 0.00 0.00 50 1016.8
20260901205226 35 272 0.0 0.0 0.00 0.00 0.00 49 1017.1
20260901204722 35 334 0.0 1.6 0.00 0.00 0.00 46 1017.0
20260901204218 34 168 0.0 3.2 0.00 0.00 0.00 50 1017.1
20260901203713 34 193 0.0 3.2 0.00 0.00 0.00 48 1017.1
20260901203207 35 165 0.0 1.6 0.00 0.00 0.00 50 1016.9
20260901202707 35 180 0.0 1.6 0.00 0.00 0.00 48 1017.2
20260901202203 35 225 0.0 4.8 0.00 0.00 0.00 47 1017.1
20260901201659 35 256 1.6 6.4 0.00 0.00 0.00 45 1017.2
20260901201157 35 156 0.0 4.8 0.00 0.00 0.00 45 1017.4
20260901200657 35 63 0.0 3.2 0.00 0.00 0.00 47 1017.6
20260901200152 35 221 0.0 4.8 0.00 0.00 0.00 47 1017.2
20260901195650 35 238 0.0 1.6 0.00 0.00 0.00 46 1017.4
20260901195144 35 272 0.0 3.2 0.00 0.00 0.00 45 1017.4
20260901194640 35 264 0.0 6.4 0.00 0.00 0.00 44 1017.8
20260901194135 35 215 4.8 6.4 0.00 0.00 0.00 43 1017.4
20260901193631 36 295 3.2 8.0 0.00 0.00 0.00 43 1017.7
20260901193130 35 259 0.0 3.2 0.00 0.00 0.00 46 1017.5
20260901192625 35 191 1.6 4.8 0.00 0.00 0.00 43 1017.8
20260901192121 35 262 4.8 8.0 0.00 0.00 0.00 45 1017.7
20260901191617 35 261 1.6 6.4 0.00 0.00 0.00 46 1017.9
20260901191113 35 219 1.6 4.8 0.00 0.00 0.00 47 1018.1
20260901190609 35 119 0.0 1.6 0.00 0.00 0.00 48 1017.9
20260901190108 35 244 1.6 3.2 0.00 0.00 0.00 47 1017.9
20260901185606 35 230 0.0 3.2 0.00 0.00 0.00 47 1018.1
20260901185105 35 151 1.6 4.8 0.00 0.00 0.00 45 1018.1
20260901184601 35 282 0.0 4.8 0.00 0.00 0.00 46 1018.1
20260901184055 35 15 0.0 4.8 0.00 0.00 0.00 46 1018.0
20260901183550 35 234 0.0 1.6 0.00 0.00 0.00 49 1018.3
20260901183045 35 134 3.2 4.8 0.00 0.00 0.00 47 1018.3
20260901182541 35 234 4.8 6.4 0.00 0.00 0.00 46 1018.4
20260901182036 35 286 1.6 8.0 0.00 0.00 0.00 47 1018.1
20260901181535 35 220 1.6 11.3 0.00 0.00 0.00 46 1018.4
20260901181035 35 154 3.2 4.8 0.00 0.00 0.00 48 1018.3
20260901180534 35 331 1.6 9.7 0.00 0.00 0.00 46 1018.1
20260901180029 35 144 6.4 6.4 0.00 0.00 0.00 47 1018.1
20260901175522 34 223 3.2 6.4 0.00 0.00 0.00 47 1018.1
20260901175016 34 248 6.4 8.0 0.00 0.00 0.00 47 1017.9
20260901174513 34 353 3.2 4.8 0.00 0.00 0.00 47 1017.8
20260901174009 34 325 1.6 3.2 0.00 0.00 0.00 48 1018.0
20260901173503 34 240 3.2 3.2 0.00 0.00 0.00 47 1018.0
20260901172959 33 263 4.8 6.4 0.00 0.00 0.00 47 1018.1
20260901172454 33 114 1.6 4.8 0.00 0.00 0.00 50 1018.4
20260901171952 33 133 3.2 6.4 0.00 0.00 0.00 48 1018.1
20260901171451 33 158 3.2 3.2 0.00 0.00 0.00 50 1018.3
20260901170950 33 267 4.8 4.8 0.00 0.00 0.00 51 1018.2
20260901170445 33 217 8.0 8.0 0.00 0.00 0.00 50 1018.0
20260901165944 33 222 1.6 4.8 0.00 0.00 0.00 55 1018.1
20260901165439 33 132 0.0 6.4 0.00 0.00 0.00 54 1018.5
20260901164935 33 147 0.0 3.2 0.00 0.00 0.00 53 1018.4
20260901164430 33 260 0.0 8.0 0.00 0.00 0.00 52 1018.6
20260901163925 33 210 0.0 4.8 0.00 0.00 0.00 53 1018.5
20260901163420 32 303 3.2 8.0 0.00 0.00 0.00 53 1018.6
20260901162919 32 235 6.4 6.4 0.00 0.00 0.00 58 1018.6
20260901162414 32 327 0.0 3.2 0.00 0.00 0.00 58 1018.8
20260901161908 32 155 3.2 3.2 0.00 0.00 0.00 59 1018.9
20260901161407 32 193 1.6 3.2 0.00 0.00 0.00 58 1019.0
20260901160902 32 257 0.0 6.4 0.00 0.00 0.00 59 1019.2
20260901160358 32 166 0.0 4.8 0.00 0.00 0.00 62 1019.1
20260901155858 32 169 3.2 8.0 0.00 0.00 0.00 60 1019.2
20260901155352 32 265 4.8 6.4 0.00 0.00 0.00 60 1019.2
20260901154849 31 225 1.6 4.8 0.00 0.00 0.00 61 1019.1
20260901154348 31 186 3.2 4.8 0.00 0.00 0.00 63 1019.2
20260901153843 32 140 1.6 6.4 0.00 0.00 0.00 62 1019.4
20260901153338 32 242 3.2 6.4 0.00 0.00 0.00 63 1019.3
20260901152836 31 198 6.4 8.0 0.00 0.00 0.00 61 1019.4
20260901152337 31 285 0.0 4.8 0.00 0.00 0.00 62 1019.3
20260901151832 31 234 1.6 6.4 0.00 0.00 0.00 64 1019.6
20260901151332 31 258 3.2 4.8 0.00 0.00 0.00 67 1019.3
20260901150826 31 188 0.0 4.8 0.00 0.00 0.00 65 1019.4
20260901150324 30 172 1.6 3.2 0.00 0.00 0.00 69 1019.5
20260901145821 30 176 4.8 4.8 0.00 0.00 0.00 69 1019.4
20260901145315 30 138 3.2 3.2 0.00 0.00 0.00 68 1019.5
20260901144811 30 197 4.8 4.8 0.00 0.00 0.00 67 1019.7
20260901144307 30 133 1.6 4.8 0.00 0.00 0.00 69 1019.7
20260901143802 30 240 3.2 4.8 0.00 0.00 0.00 69 1019.8
20260901143258 30 235 0.0 1.6 0.00 0.00 0.00 71 1019.7
20260901142754 29 187 0.0 3.2 0.00 0.00 0.00 74 1019.6
20260901142252 28 272 0.0 0.0 0.00 0.00 0.00 74 1019.6
20260901141742 29 210 0.0 1.6 0.00 0.00 0.00 73 1019.6
20260901141242 30 155 1.6 1.6 0.00 0.00 0.00 72 1019.6
20260901140742 30 150 3.2 4.8 0.00 0.00 0.00 71 1019.6
20260901140240 30 170 3.2 3.2 0.00 0.00 0.00 71 1019.5
20260901135736 29 247 0.0 1.6 0.00 0.00 0.00 75 1019.5
20260901135235 28 210 1.6 3.2 0.00 0.00 0.00 79 1019.4
20260901134732 27 182 0.0 3.2 0.00 0.00 0.00 80 1019.6
20260901134231 27 119 0.0 4.8 0.00 0.00 0.00 81 1019.7
20260901133731 27 175 0.0 3.2 0.00 0.00 0.00 83 1019.5
20260901133231 27 132 0.0 4.8 0.00 0.00 0.00 83 1019.6
20260901132729 26 177 0.0 1.6 0.00 0.00 0.00 84 1019.8
20260901132224 26 194 0.0 3.2 0.00 0.00 0.00 85 1019.5
20260901131719 26 270 0.0 1.6 0.00 0.00 0.00 87 1019.6
20260901131218 25 147 0.0 1.6 0.00 0.00 0.00 89 1019.7
20260901130714 25 187 0.0 1.6 0.00 0.00 0.00 90 1019.7
20260901130213 25 159 0.0 1.6 0.00 0.00 0.00 92 1019.8
20260901125711 25 159 0.0 3.2 0.00 0.00 0.00 94 1019.9
20260901125207 24 177 0.0 1.6 0.00 0.00 0.00 95 1019.9
20260901124701 23 242 0.0 0.0 0.00 0.00 0.00 96 1019.6
20260901124201 23 242 0.0 0.0 0.00 0.00 0.00 96 1019.8
20260901123655 23 147 0.0 3.2 0.00 0.00 0.00 97 1020.1
20260901123155 23 119 1.6 3.2 0.00 0.00 0.00 97 1019.9
20260901122654 23 133 1.6 3.2 0.00 0.00 0.00 97 1019.7
20260901122149 23 131 3.2 3.2 0.00 0.00 0.00 98 1019.8
20260901121643 23 74 0.0 1.6 0.00 0.00 0.00 98 1019.8
20260901121139 22 190 0.0 1.6 0.00 0.00 0.00 99 1019.8
20260901120638 22 156 0.0 1.6 0.00 0.00 0.00 99 1019.9
20260901120133 22 158 0.0 3.2 0.00 0.00 0.00 99 1019.8
20260901115629 22 147 0.0 0.0 0.00 0.00 0.00 99 1019.8
20260901115125 22 154 0.0 0.0 0.00 0.00 0.00 99 1019.9
20260901114622 22 150 0.0 1.6 0.00 0.00 0.00 99 1019.9
20260901114120 22 169 0.0 3.2 0.00 0.00 0.00 99 1019.9
20260901113619 22 154 0.0 1.6 0.00 0.00 0.00 99 1019.5
20260901113114 22 169 1.6 3.2 0.00 0.00 0.00 99 1019.4
20260901112609 22 162 3.2 3.2 0.00 0.00 0.00 99 1019.5
20260901112103 22 171 1.6 3.2 0.00 0.00 0.00 99 1019.4
20260901111603 22 154 0.0 1.6 0.00 0.00 0.00 99 1019.4
20260901111101 22 147 0.0 0.0 0.00 0.00 0.00 99 1019.3
20260901110557 22 154 0.0 3.2 0.00 0.00 0.00 99 1019.5
20260901110052 22 189 0.0 3.2 0.00 0.00 0.00 99 1019.4
20260901105549 21 172 0.0 1.6 0.00 0.00 0.00 98 1019.2
20260901105048 22 117 0.0 1.6 0.00 0.00 0.00 98 1019.2
20260901104544 22 114 0.0 1.6 0.00 0.00 0.00 98 1018.9
20260901104040 22 158 0.0 3.2 0.00 0.00 0.00 98 1019.1
20260901103534 22 143 0.0 1.6 0.00 0.00 0.00 98 1019.2
20260901103030 22 128 0.0 1.6 0.00 0.00 0.00 98 1019.2
20260901102529 22 180 0.0 0.0 0.00 0.00 0.00 98 1019.0
20260901102024 22 172 0.0 1.6 0.00 0.00 0.00 98 1019.1
20260901101520 22 172 0.0 0.0 0.00 0.00 0.00 98 1019.3
20260901101019 22 159 0.0 0.0 0.00 0.00 0.00 98 1019.3
20260901100514 22 170 0.0 1.6 0.00 0.00 0.00 98 1019.2
20260901100013 22 145 3.2 3.2 0.00 0.00 0.00 98 1019.3
20260901095512 22 134 1.6 3.2 0.00 0.00 0.00 98 1019.4
20260901095010 22 171 0.0 3.2 0.00 0.00 0.00 98 1019.3
20260901094505 22 200 0.0 1.6 0.00 0.00 0.00 98 1019.4
20260901094004 22 180 0.0 1.6 0.00 0.00 0.00 98 1019.2
20260901093458 22 119 0.0 1.6 0.00 0.00 0.00 98 1019.2
20260901092953 22 119 1.6 1.6 0.00 0.00 0.00 98 1019.1
20260901092449 22 145 0.0 3.2 0.00 0.00 0.00 98 1019.3
20260901091945 22 154 1.6 1.6 0.00 0.00 0.00 98 1019.3
20260901091440 22 133 3.2 3.2 0.00 0.00 0.00 98 1019.4
20260901090935 22 151 0.0 3.2 0.00 0.00 0.00 98 1019.2
20260901090435 22 169 1.6 3.2 0.00 0.00 0.00 98 1019.3
20260901085930 22 153 1.6 3.2 0.00 0.00 0.00 98 1019.3
20260901085426 22 154 0.0 0.0 0.00 0.00 0.00 98 1019.3
20260901084922 22 247 0.0 0.0 0.00 0.00 0.00 98 1019.1
20260901084418 22 187 1.6 3.2 0.00 0.00 0.00 98 1019.1
20260901083914 22 167 3.2 3.2 0.00 0.00 0.00 98 1019.2
20260901083414 22 148 0.0 1.6 0.00 0.00 0.00 98 1019.2
20260901082912 22 119 0.0 0.0 0.00 0.00 0.00 98 1019.3
20260901082407 22 172 0.0 0.0 0.00 0.00 0.00 98 1019.4
20260901081902 22 154 0.0 1.6 0.00 0.00 0.00 98 1019.2
20260901081357 22 159 1.6 3.2 0.00 0.00 0.00 98 1019.2
20260901080857 22 159 1.6 3.2 0.00 0.00 0.00 97 1019.0
20260901080352 22 164 1.6 1.6 0.00 0.00 0.00 97 1019.4
20260901075846 22 164 3.2 3.2 0.00 0.00 0.00 97 1019.3
20260901075341 22 165 1.6 3.2 0.00 0.00 0.00 97 1019.3
20260901074836 22 171 0.0 1.6 0.00 0.00 0.00 97 1019.2
20260901074331 22 167 1.6 3.2 0.00 0.00 0.00 97 1019.2
20260901073826 22 158 1.6 3.2 0.00 0.00 0.00 97 1019.1
20260901073322 22 161 0.0 3.2 0.00 0.00 0.00 97 1019.2
20260901072818 22 149 0.0 1.6 0.00 0.00 0.00 97 1019.0
20260901072317 22 172 0.0 0.0 0.00 0.00 0.00 97 1018.9
20260901071813 22 148 0.0 1.6 0.00 0.00 0.00 97 1019.2
20260901071311 22 163 0.0 1.6 0.00 0.00 0.00 97 1019.3
20260901070810 22 176 1.6 3.2 0.00 0.00 0.00 97 1019.5
20260901070306 22 163 1.6 3.2 0.00 0.00 0.00 97 1019.7
20260901065805 22 169 0.0 3.2 0.00 0.00 0.00 97 1019.6
20260901065300 22 154 0.0 0.0 0.00 0.00 0.00 97 1019.4
20260901064756 22 159 1.6 1.6 0.00 0.00 0.00 96 1019.5
20260901064252 22 173 0.0 1.6 0.00 0.00 0.00 96 1019.5
20260901063750 22 158 3.2 3.2 0.00 0.00 0.00 96 1019.7
20260901063245 22 156 1.6 3.2 0.00 0.00 0.00 96 1019.6
20260901062741 22 156 0.0 0.0 0.00 0.00 0.00 96 1019.9
20260901062237 22 186 0.0 1.6 0.00 0.00 0.00 96 1019.7
20260901061733 22 169 1.6 1.6 0.00 0.00 0.00 96 1019.9
20260901061232 22 148 1.6 1.6 0.00 0.00 0.00 96 1019.9
20260901060727 22 147 0.0 1.6 0.00 0.00 0.00 96 1019.7
20260901060223 22 149 0.0 1.6 0.00 0.00 0.00 95 1019.8
20260901055718 22 163 1.6 3.2 0.00 0.00 0.00 95 1019.9
20260901055215 22 150 1.6 3.2 0.00 0.00 0.00 95 1019.8
20260901054711 23 152 1.6 1.6 0.00 0.00 0.00 95 1020.0
20260901054208 23 141 1.6 3.2 0.00 0.00 0.00 95 1019.9
20260901053703 23 142 1.6 3.2 0.00 0.00 0.00 94 1020.1
20260901053159 23 151 1.6 1.6 0.00 0.00 0.00 94 1020.1
20260901052654 23 172 0.0 1.6 0.00 0.00 0.00 94 1020.1
20260901052149 23 172 0.0 1.6 0.00 0.00 0.00 94 1019.8
20260901051648 23 183 1.6 3.2 0.00 0.00 0.00 94 1020.0
20260901051148 23 177 1.6 3.2 0.00 0.00 0.00 93 1020.1
20260901050643 23 170 0.0 3.2 0.00 0.00 0.00 93 1020.4
20260901050138 23 165 1.6 1.6 0.00 0.00 0.00 93 1020.2
20260901045638 23 179 1.6 3.2 0.00 0.00 0.00 93 1020.2
20260901045133 23 155 1.6 3.2 0.00 0.00 0.00 92 1020.3
20260901044629 23 155 1.6 3.2 0.00 0.00 0.00 92 1020.5
20260901044125 23 164 0.0 0.0 0.00 0.00 0.00 91 1020.5
20260901043620 24 159 0.0 1.6 0.00 0.00 0.00 91 1020.4
20260901043116 24 159 0.0 1.6 0.00 0.00 0.00 91 1020.1
20260901042615 24 172 0.0 0.0 0.00 0.00 0.00 91 1020.4
20260901042110 24 172 0.0 1.6 0.00 0.00 0.00 91 1020.5
20260901041606 24 190 1.6 3.2 0.00 0.00 0.00 90 1020.2
20260901041101 24 165 1.6 3.2 0.00 0.00 0.00 89 1020.2
20260901040600 24 160 0.0 1.6 0.00 0.00 0.00 89 1020.0
20260901040055 24 159 0.0 1.6 0.00 0.00 0.00 89 1020.3
20260901035553 24 133 0.0 1.6 0.00 0.00 0.00 90 1020.1
20260901035052 24 184 0.0 1.6 0.00 0.00 0.00 91 1020.2
20260901034551 24 139 1.6 3.2 0.00 0.00 0.00 91 1020.2
20260901034051 25 150 0.0 3.2 0.00 0.00 0.00 91 1020.4
20260901033550 25 160 0.0 1.6 0.00 0.00 0.00 89 1020.2
20260901033045 25 148 1.6 3.2 0.00 0.00 0.00 88 1020.2
20260901032544 25 174 1.6 3.2 0.00 0.00 0.00 88 1020.2
20260901032039 25 160 1.6 1.6 0.00 0.00 0.00 88 1020.1
20260901031534 25 150 1.6 3.2 0.00 0.00 0.00 88 1020.0
20260901031030 25 147 1.6 3.2 0.00 0.00 0.00 87 1020.2
20260901030530 25 162 0.0 1.6 0.00 0.00 0.00 85 1019.8
20260901030025 25 154 0.0 3.2 0.00 0.00 0.00 84 1020.1
20260901025524 26 159 1.6 1.6 0.00 0.00 0.00 84 1020.2
20260901025019 26 168 3.2 3.2 0.00 0.00 0.00 84 1020.2
20260901024514 26 152 1.6 3.2 0.00 0.00 0.00 83 1020.2
20260901024012 26 169 1.6 1.6 0.00 0.00 0.00 83 1020.0
20260901023507 26 156 0.0 1.6 0.00 0.00 0.00 83 1020.0
20260901023002 26 169 1.6 3.2 0.00 0.00 0.00 82 1020.1
20260901022457 26 162 0.0 1.6 0.00 0.00 0.00 81 1020.0
20260901021952 27 172 0.0 3.2 0.00 0.00 0.00 79 1020.0
20260901021448 27 119 0.0 1.6 0.00 0.00 0.00 78 1020.0
20260901020943 27 159 0.0 0.0 0.00 0.00 0.00 77 1020.2
20260901020438 27 161 0.0 1.6 0.00 0.00 0.00 77 1020.3
20260901015936 27 137 0.0 1.6 0.00 0.00 0.00 77 1020.3
20260901015434 27 126 1.6 3.2 0.00 0.00 0.00 77 1020.0
20260901014932 27 129 1.6 3.2 0.00 0.00 0.00 77 1020.1